[[{"header":{"parameterUnit":"m.s-1","parameterCategory":1,"la1":30.2991,"la2":30.254,"lo1":-89.0895,"lo2":-89.0444,"dy":0.0017,"dx":0.0017,"nx":28,"ny":28,"refTime":"2023-08-16T21:00:00:Z","depth":0,"parameterNumber":2,"parameterNumberName":"U-component_of_WINDS"},"data":[0,0,0,0,0,0,0,0,0,0,0,0,0,0,0,0,0,0,0,0,0,0,0,0,0,0,0,0,0,0,0,0,0,0,0,0,0,0,0,0,0,0,0,0,0,0,0,0,0,0,0,0,0,0,0,0,0,0,4.966,4.9662,0,4.9855,4.9857,4.986,4.9825,4.9822,4.9819,4.9815,5.0016,5.0024,5.0033,0,0,0,0,0,0,0,0,0,0,0,0,0,4.9255,4.9262,4.9659,4.9662,4.9664,4.9855,4.9857,4.986,4.9826,4.9822,4.9818,4.9814,5.0013,5.0023,5.0033,0,0,0,0,0,0,0,0,0,0,0,0,0,4.9438,4.9265,4.9659,4.967,4.9673,4.9854,4.9858,4.9861,4.9827,4.9822,4.9817,4.9812,5.001,5.0022,5.0035,5.0217,0,0,5.0074,5.0079,0,0,0,0,0,0,0,0,4.9428,4.9453,4.9666,4.967,4.9673,4.9811,4.9788,4.998,4.9828,4.9769,4.9815,4.9809,4.9952,4.9969,5.0017,5.0226,5.0235,5.0075,5.0083,5.0088,5.0092,0,0,0,0,0,0,0,4.9415,4.9445,4.9737,4.9669,4.9674,4.9665,4.9685,4.9824,4.9887,4.9773,4.9771,4.9795,4.9953,5.0005,5.0021,5.0238,5.0075,5.0086,5.0094,5.0099,5.0603,5.0608,0,0,0,0,0,0,4.9399,4.9434,4.9731,4.9743,4.9535,4.9676,4.9699,4.9772,4.9885,4.9897,4.9799,4.9793,4.9985,5.0007,5.0028,5.0246,5.0088,5.01,5.0108,5.0597,5.0604,5.061,0,0,0,0,0,0,4.9391,4.9426,4.9723,4.9588,4.9625,4.9689,4.9771,4.9778,4.983,4.9905,4.9915,4.9841,4.9982,5.001,5.0169,5.0253,5.0106,5.0118,5.059,5.0599,5.0607,5.0685,0,0,0,0,0,0,4.9379,4.9423,4.9494,4.959,4.9632,4.9861,4.9776,4.9786,4.9852,4.9846,4.9947,4.9958,4.998,5.015,5.0182,5.0268,5.0128,5.0583,5.0594,5.0604,5.0675,5.0695,5.0712,0,0,0,0,0,4.9365,4.9509,4.9497,4.9533,4.9722,4.9866,4.9891,4.9913,4.9859,4.993,4.9977,4.9955,5.0239,5.0167,5.0202,5.0293,5.0578,5.0591,5.0603,5.0667,5.0691,5.0712,0,0,0,0,0,0,4.9421,4.9522,4.951,4.969,4.977,4.986,4.995,4.9938,5.0035,5.0025,5.0049,5.0072,5.0232,5.0279,5.0197,5.0474,5.0401,5.0421,5.0437,5.0461,5.0479,5.0463,5.0138,0,0,0,0,0,4.9455,4.9564,4.9646,4.9796,4.9836,4.9887,4.995,4.996,5.0044,5.0078,5.0137,5.0219,5.0326,5.0396,5.05,5.0682,5.0702,5.0762,5.078,5.0795,5.0812,5.0909,5.0935,5.0652,5.0652,5.0652,0,0,4.9525,4.9593,4.9661,4.9809,4.9872,4.9983,4.9915,5.0037,5.0119,5.0096,5.0249,5.0295,5.0388,5.0559,5.0637,5.0603,5.0895,5.0812,5.0823,5.0832,5.0925,5.0951,5.0975,5.0661,5.0659,5.0658,0,0,4.9708,4.9772,4.9903,4.9967,5.0063,5.0095,5.0126,5.0219,5.0248,5.0402,5.0386,5.0484,5.067,5.0735,5.0793,5.0999,5.0981,5.1032,5.1128,5.1222,5.1244,5.1264,5.1334,5.136,5.1049,5.1049,5.1049,0,4.9783,4.9951,4.9972,5.0094,5.0158,5.0142,5.0273,5.0335,5.046,5.0504,5.0464,5.0694,5.0755,5.094,5.0989,5.1038,5.1073,5.102,5.1239,5.1259,5.1278,5.1346,5.1372,5.1055,5.1054,5.1053,5.1053,0,5.0036,5.0152,5.0246,5.0366,5.0441,5.0568,5.0606,5.068,5.0683,5.0719,5.0874,5.0947,5.1063,5.1108,5.1113,5.1293,5.1268,5.1234,5.116,5.131,5.1374,5.14,5.1062,5.106,5.1059,5.1057,0,0,5.0261,5.0389,5.0423,5.0475,5.0579,5.0669,5.0794,5.0907,5.0968,5.1055,5.1158,5.1314,5.1282,5.1347,5.1359,5.1442,5.1596,5.1397,5.14,5.1429,5.1795,5.1818,5.1848,5.1586,5.1591,5.1595,5.1786,0,5.0452,5.0672,5.0693,5.089,5.0996,5.0981,5.1089,5.1163,5.12,5.1294,5.1335,5.1443,5.1395,5.1433,5.1515,5.156,5.167,5.1547,5.168,5.1685,5.1655,5.1882,5.1907,5.2084,5.1811,5.1816,5.1819,0,5.0705,5.0797,5.1004,5.1089,5.1135,5.1232,5.1335,5.1426,5.151,5.153,5.1602,5.1602,5.1729,5.1652,5.1826,5.1742,5.1797,5.1828,5.1835,5.1846,5.1759,5.1896,5.2141,5.2166,5.1859,5.1855,5.1853,0,5.0845,5.1021,5.1166,5.1212,5.1317,5.1384,5.1431,5.151,5.1575,5.1665,5.1707,5.1812,5.1869,5.1949,5.1977,5.1919,5.2148,5.2074,5.2166,5.2166,5.2214,5.221,5.2468,5.2255,5.2254,5.2254,5.2253,0,5.1054,5.1181,5.1229,5.1319,5.1458,5.1481,5.1619,5.1663,5.1732,5.1828,5.1823,5.1913,5.1945,5.2041,5.2064,5.2201,5.2228,5.2247,5.2251,5.2246,5.2243,5.2281,5.2268,5.2261,5.2259,5.2258,5.2256,0,5.1234,5.1272,5.1428,5.1514,5.1538,5.1637,5.171,5.1795,5.183,5.1951,5.1981,5.2035,5.2147,5.2183,5.2318,5.2333,5.2493,5.2488,5.2465,5.2465,5.2554,5.2543,5.2843,5.2882,5.2645,5.2648,5.265,0,5.1364,5.146,5.1555,5.1619,5.1668,5.1771,5.1837,5.1863,5.1932,5.2032,5.2105,5.2215,5.2305,5.2483,5.2534,5.2637,5.2632,5.273,5.2648,5.2638,5.263,5.2622,5.2631,5.2745,5.2747,5.2749,5.2751,0,5.159,5.1603,5.1698,5.18,5.1878,5.196,5.2038,5.2091,5.2128,5.2205,5.2318,5.2388,5.2525,5.2633,5.2737,5.2784,5.2773,5.2777,5.2803,5.2797,5.2778,5.2786,5.2504,5.2769,5.2767,5.2766,5.2765,5.2764,5.1747,5.183,5.1909,5.2014,5.2076,5.2149,5.2232,5.2276,5.2371,5.2483,5.2493,5.2615,5.2693,5.2831,5.2883,5.2978,5.295,5.2989,5.2998,5.3007,5.3012,5.2765,5.2998,5.2997,5.2997,5.2996,5.2996,0,5.1969,5.2019,5.2116,5.2224,5.2307,5.2289,5.2374,5.2444,5.2551,5.2625,5.2713,5.2841,5.2946,5.3004,5.3108,5.3173,5.317,5.3199,5.3193,5.3203,5.3033,5.2998,5.3199,5.3199,5.3199,5.3199,5.3199,5.3199,5.2095,5.2234,5.2256,5.2425,5.2474,5.2592,5.2642,5.2708,5.2766,5.291,5.2997,5.3034,5.3101,5.3209,5.3304,5.3318,5.3355,5.3387,5.3398,5.3237,5.3216,5.3196,5.3163,5.3395,5.3396,5.356,5.3561,5.3562]},{"header":{"parameterUnit":"m.s-1","parameterCategory":1,"la1":30.2991,"la2":30.254,"lo1":-89.0895,"lo2":-89.0444,"dy":0.0017,"dx":0.0017,"nx":28,"ny":28,"refTime":"2023-08-16T21:00:00:Z","depth":0,"parameterNumber":3,"parameterNumberName":"V-component_of_WINDS"},"data":[0,0,0,0,0,0,0,0,0,0,0,0,0,0,0,0,0,0,0,0,0,0,0,0,0,0,0,0,0,0,0,0,0,0,0,0,0,0,0,0,0,0,0,0,0,0,0,0,0,0,0,0,0,0,0,0,0,0,1.0823,1.0824,0,1.0918,1.0919,1.092,1.0928,1.0927,1.0925,1.0924,1.1024,1.1027,1.1031,0,0,0,0,0,0,0,0,0,0,0,0,0,1.0649,1.0652,1.0823,1.0824,1.0825,1.0918,1.0919,1.092,1.0928,1.0926,1.0925,1.0924,1.1023,1.1027,1.1031,0,0,0,0,0,0,0,0,0,0,0,0,0,1.0732,1.0653,1.0823,1.084,1.0843,1.0918,1.0919,1.0921,1.0928,1.0926,1.0925,1.0923,1.1021,1.1026,1.1032,1.1097,0,0,1.1048,1.1051,0,0,0,0,0,0,0,0,1.0728,1.0739,1.0836,1.0839,1.0842,1.0909,1.0894,1.098,1.0928,1.0896,1.0924,1.0923,1.0987,1.0995,1.1017,1.1101,1.1106,1.1049,1.1052,1.1054,1.1056,0,0,0,0,0,0,0,1.0722,1.0735,1.0861,1.0838,1.0841,1.0843,1.0854,1.091,1.0949,1.0898,1.0899,1.091,1.0988,1.1011,1.1019,1.1107,1.1049,1.1054,1.1057,1.1059,1.1249,1.125,0,0,0,0,0,0,1.0712,1.073,1.0858,1.0863,1.078,1.0848,1.0859,1.0889,1.0948,1.0956,1.0911,1.091,1.1003,1.1013,1.1022,1.1102,1.1054,1.106,1.1063,1.1247,1.1249,1.1251,0,0,0,0,0,0,1.0709,1.0724,1.0854,1.0797,1.0814,1.0852,1.0886,1.0892,1.0915,1.0958,1.0965,1.0928,1.1002,1.1015,1.1078,1.1106,1.1062,1.1067,1.1245,1.1248,1.125,1.1262,0,0,0,0,0,0,1.0704,1.0722,1.0747,1.0797,1.0817,1.0907,1.0888,1.0895,1.0924,1.0923,1.0975,1.0983,1.1002,1.107,1.1083,1.1112,1.1071,1.1243,1.1246,1.1249,1.1259,1.1265,1.1269,0,0,0,0,0,1.0697,1.0748,1.0749,1.0764,1.0849,1.0909,1.092,1.094,1.0926,1.0952,1.0979,1.0981,1.11,1.1076,1.1091,1.1123,1.1241,1.1245,1.1249,1.1257,1.1264,1.1269,0,0,0,0,0,0,1.0701,1.0754,1.0756,1.0824,1.0862,1.091,1.0943,1.0947,1.099,1.0988,1.1012,1.1023,1.1086,1.111,1.1083,1.1188,1.1169,1.1176,1.117,1.1176,1.1181,1.1175,1.1076,0,0,0,0,0,1.0709,1.0754,1.0798,1.0853,1.0872,1.0904,1.0931,1.0944,1.0984,1.1,1.1033,1.1072,1.1118,1.1149,1.1194,1.1262,1.1274,1.1291,1.1296,1.13,1.1306,1.1344,1.1352,1.1264,1.1264,1.1264,0,0,1.0728,1.0762,1.0789,1.0855,1.0886,1.0931,1.0918,1.0967,1.1001,1.1008,1.1069,1.1094,1.114,1.1206,1.1236,1.1228,1.1333,1.1305,1.1308,1.1312,1.1349,1.1357,1.1365,1.1267,1.1267,1.1266,0,0,1.0785,1.0815,1.0864,1.0895,1.0941,1.0962,1.0973,1.1021,1.1038,1.1099,1.1105,1.1146,1.1225,1.1258,1.1284,1.1351,1.1354,1.1365,1.1392,1.1428,1.1435,1.1441,1.1466,1.1474,1.1371,1.1371,1.1371,0,1.0802,1.087,1.0889,1.0938,1.0967,1.0974,1.1024,1.1053,1.1112,1.1132,1.1121,1.122,1.1251,1.1325,1.1341,1.1362,1.1376,1.136,1.1433,1.1439,1.1445,1.1468,1.1477,1.1372,1.1372,1.1372,1.1372,0,1.0889,1.0937,1.0971,1.1026,1.1059,1.1108,1.1134,1.1165,1.1174,1.1195,1.1258,1.1295,1.1348,1.1366,1.1375,1.144,1.1434,1.1427,1.1409,1.1454,1.1477,1.1486,1.1374,1.1373,1.1373,1.1373,0,0,1.0953,1.1017,1.1029,1.1054,1.1105,1.1142,1.1191,1.1241,1.1267,1.1307,1.1349,1.1415,1.1409,1.1439,1.1452,1.1484,1.1535,1.1474,1.1476,1.1484,1.1608,1.1613,1.1623,1.1536,1.1538,1.1539,1.1604,0,1.1016,1.1103,1.1121,1.1196,1.124,1.1246,1.1289,1.1325,1.1346,1.1386,1.141,1.1456,1.1445,1.1463,1.1495,1.1522,1.156,1.1517,1.1576,1.1578,1.1565,1.1635,1.164,1.17,1.1613,1.1615,1.1616,0,1.1101,1.1142,1.1222,1.1266,1.1285,1.1323,1.137,1.1408,1.1448,1.1461,1.1494,1.1503,1.1554,1.1532,1.1603,1.1574,1.1599,1.1615,1.1618,1.1625,1.16,1.1644,1.172,1.1729,1.163,1.1629,1.1628,0,1.114,1.1215,1.1272,1.1293,1.1346,1.1372,1.1395,1.1434,1.1463,1.1504,1.1523,1.1569,1.1595,1.1631,1.1652,1.1634,1.1721,1.1701,1.1734,1.1734,1.1753,1.1752,1.1834,1.1768,1.1768,1.1768,1.1767,0,1.1209,1.1258,1.129,1.1325,1.138,1.1399,1.1453,1.1476,1.151,1.155,1.1558,1.1595,1.1621,1.1662,1.1679,1.1735,1.1746,1.1758,1.1762,1.1758,1.1757,1.1776,1.1772,1.177,1.1769,1.1769,1.1769,0,1.1262,1.1286,1.1348,1.1392,1.1404,1.1443,1.148,1.1515,1.1535,1.1585,1.1598,1.1631,1.1679,1.1704,1.1764,1.1775,1.1839,1.184,1.1825,1.1827,1.1858,1.1855,1.1957,1.1971,1.1894,1.1895,1.1895,0,1.1305,1.1342,1.139,1.1417,1.144,1.1484,1.1512,1.1533,1.1563,1.161,1.1639,1.1688,1.1728,1.1805,1.1834,1.188,1.1883,1.1915,1.189,1.1884,1.1884,1.1882,1.1885,1.192,1.1921,1.1921,1.1922,0,1.1379,1.1388,1.1429,1.1474,1.1508,1.1545,1.1581,1.1602,1.1628,1.1662,1.1711,1.1742,1.1802,1.1851,1.1899,1.1923,1.1927,1.1929,1.1939,1.1936,1.1926,1.1932,1.1838,1.1927,1.1926,1.1926,1.1926,1.1926,1.1429,1.1462,1.15,1.1545,1.1574,1.1607,1.1641,1.1665,1.1707,1.1757,1.1767,1.1819,1.1857,1.1922,1.1947,1.1988,1.1981,1.1996,1.2,1.2003,1.2005,1.1918,1.1997,1.1997,1.1997,1.1997,1.1997,0,1.1503,1.1527,1.1569,1.1618,1.1654,1.1653,1.1692,1.1722,1.1768,1.1803,1.1842,1.1898,1.1944,1.1976,1.2023,1.2049,1.2052,1.2061,1.206,1.2065,1.2008,1.1995,1.2058,1.2058,1.2058,1.2058,1.2058,1.2058,1.1546,1.1602,1.1616,1.1686,1.171,1.176,1.1783,1.1814,1.1842,1.1903,1.1942,1.1962,1.1996,1.2045,1.2087,1.2095,1.2112,1.2121,1.213,1.2076,1.207,1.2063,1.2051,1.2125,1.2125,1.2183,1.2184,1.2184]}]]